Vorticity
6 8 7 7 7 8 9 8 14 9 5 6 5 3 6 7 7 2 5 12 12 6 8 7 4 8 13 -14 29 24 7 9
12 6 3 8 6 8 8 7 4 5 4 4 7 5 4 7 7 3 5 9 10 9 10 8 16 10 13 -8 38 18 20 15
7 5 4 5 5 7 10 10 13 8 8 6 4 4 5 8 7 5 3 8 11 12 9 10 14 10 8 -10 46 8 2 8
4 4 4 8 8 5 7 10 12 7 8 6 3 5 8 8 7 6 3 9 13 7 14 9 20 -9 38 15 27 5 5 4
2 5 5 5 7 6 8 4 7 5 10 6 5 5 8 8 8 7 6 6 13 6 11 8 13 8 33 44 16 -5 18 25
4 5 6 7 7 7 5 6 8 10 12 9 7 8 6 7 8 6 6 6 11 10 10 9 5 3 42 36 25 3 9 16
6 4 2 6 5 4 7 3 5 9 12 6 6 9 5 6 7 5 4 4 10 11 10 11 14 17 37 29 4 6 8 9
-2 -2 3 4 3 4 1 5 4 12 15 5 7 8 6 5 6 6 5 4 8 11 11 10 10 25 26 33 18 19 3 11
29 -5 8 10 9 12 14 13 10 13 17 7 8 7 5 4 5 7 5 5 8 11 13 7 10 9 16 33 22 15 6 12
23 28 13 11 13 16 12 12 9 18 10 6 7 6 5 4 5 5 8 5 7 7 14 11 8 17 -1 41 23 16 14 4
12 12 10 11 15 13 13 10 14 13 9 6 7 8 4 5 6 5 7 5 8 5 13 13 6 6 9 6 33 0 28 15
8 8 10 11 12 10 16 10 12 8 12 9 9 7 6 6 8 4 10 4 9 5 7 14 8 8 7 10 12 18 1 7
10 9 12 11 10 11 13 13 16 6 4 13 9 6 8 8 4 5 10 5 10 6 5 10 8 10 9 9 9 14 -12 7
21 18 12 14 12 11 11 10 12 16 9 9 8 6 7 5 3 5 8 5 10 9 5 7 10 8 6 6 13 10 13 7
15 18 12 13 15 15 21 13 12 14 14 14 9 8 7 4 5 7 5 7 11 12 6 5 7 9 10 11 13 8 7 8
13 17 16 10 10 8 12 15 15 18 18 13 10 7 9 3 7 3 7 7 10 11 9 6 5 5 6 3 3 6 7 9
9 14 20 29 15 -0 8 12 11 12 19 15 10 4 6 4 5 3 4 6 7 8 11 9 6 7 4 3 3 2 1 1
17 18 5 21 36 -8 1 24 12 18 14 15 10 7 4 3 1 -2 11 4 4 3 9 9 8 6 5 5 4 3 3 1
25 14 17 19 8 40 32 10 16 12 17 17 11 9 3 2 3 -0 5 10 6 5 4 6 12 6 5 5 2 6 0 2
Height
5726 5731 5736 5740 5742 5743 5741 5746 5753 5752 5752 5752 5756 5756 5756 5755 5755 5756 5754 5752 5750 5749 5748 5747 5746 5746 5745 5747 5746 5748 5752 5757
5719 5722 5725 5730 5733 5736 5734 5737 5745 5746 5746 5746 5748 5748 5750 5750 5749 5749 5748 5746 5743 5742 5741 5740 5739 5739 5739 5740 5741 5742 5746 5751
5710 5713 5715 5720 5724 5727 5729 5729 5733 5738 5740 5738 5740 5741 5743 5744 5744 5743 5742 5739 5737 5735 5734 5733 5732 5731 5731 5732 5733 5737 5741 5744
5699 5699 5702 5709 5715 5718 5721 5723 5722 5728 5731 5730 5732 5734 5737 5738 5739 5738 5737 5733 5730 5729 5728 5726 5724 5723 5720 5721 5726 5731 5735 5738
5685 5692 5697 5699 5704 5708 5710 5714 5714 5717 5724 5723 5724 5727 5729 5731 5732 5732 5730 5727 5725 5723 5721 5719 5717 5713 5711 5712 5718 5725 5729 5732
5678 5683 5686 5691 5694 5698 5700 5704 5708 5707 5716 5714 5716 5719 5721 5724 5725 5726 5724 5722 5719 5717 5715 5713 5710 5706 5703 5705 5709 5718 5724 5728
5667 5673 5678 5683 5685 5690 5691 5692 5698 5699 5707 5706 5707 5711 5713 5716 5719 5720 5718 5715 5713 5712 5709 5707 5704 5700 5697 5700 5706 5712 5718 5723
5657 5663 5669 5674 5678 5680 5682 5683 5687 5691 5698 5697 5698 5704 5705 5709 5712 5713 5713 5710 5708 5707 5705 5702 5699 5695 5694 5696 5702 5708 5713 5718
5647 5651 5657 5662 5667 5670 5673 5674 5677 5683 5688 5688 5690 5695 5697 5700 5705 5706 5707 5705 5703 5702 5701 5699 5697 5695 5694 5695 5699 5704 5709 5713
5634 5639 5646 5650 5655 5659 5661 5664 5666 5675 5678 5679 5682 5686 5689 5693 5697 5700 5700 5699 5698 5698 5697 5696 5694 5693 5694 5695 5696 5701 5705 5709
5626 5631 5635 5639 5643 5648 5652 5653 5658 5664 5666 5669 5673 5678 5681 5685 5690 5692 5694 5692 5693 5693 5693 5692 5692 5691 5691 5692 5694 5698 5701 5705
5619 5622 5626 5630 5634 5638 5642 5644 5649 5653 5656 5660 5664 5669 5672 5676 5682 5686 5687 5687 5687 5688 5687 5689 5688 5689 5689 5690 5691 5694 5697 5700
5610 5613 5616 5620 5623 5627 5632 5635 5640 5642 5646 5651 5655 5659 5664 5667 5674 5678 5681 5682 5681 5682 5682 5684 5684 5685 5686 5687 5689 5691 5693 5695
5603 5605 5606 5610 5614 5618 5622 5626 5629 5633 5637 5642 5646 5649 5655 5658 5665 5671 5674 5675 5676 5677 5677 5678 5679 5680 5682 5684 5686 5687 5689 5691
5596 5598 5599 5601 5604 5607 5611 5614 5618 5622 5626 5632 5637 5640 5645 5649 5656 5662 5667 5669 5670 5670 5671 5672 5673 5675 5676 5678 5681 5683 5685 5687
5592 5591 5592 5593 5596 5599 5603 5606 5609 5613 5617 5623 5628 5631 5636 5641 5647 5654 5659 5661 5662 5663 5664 5666 5669 5672 5673 5674 5675 5677 5679 5681
5587 5587 5587 5588 5590 5593 5595 5597 5601 5604 5609 5614 5619 5623 5629 5634 5639 5645 5650 5653 5655 5655 5657 5660 5663 5665 5666 5667 5669 5671 5672 5672
5582 5582 5582 5582 5583 5585 5584 5586 5590 5593 5598 5604 5609 5615 5620 5624 5630 5636 5640 5643 5644 5646 5648 5650 5654 5657 5658 5659 5660 5661 5663 5665
5579 5578 5578 5576 5577 5579 5581 5576 5580 5584 5589 5594 5599 5605 5609 5613 5619 5625 5630 5633 5635 5637 5639 5641 5645 5648 5649 5650 5651 5652 5654 5654